Pagina principale
METAR-TAF:

METAR-TAF

Aeroporti :

Passo Rolle, Italia

latitudine: 46-18N, longitudine: 011-47E, altezza: 2004 m

Osservazione

Il bollettino è stato emesso 22 minuti fa, alle 15:55 UTC
Vento 2 kt da direzioni variabili
Temperature 14°C
Umidità 77%
Pressione 1026 hPa
Visibilità 10 km o più
Nuvoloso ad un'altezza di 3500 ft

METAR: LIVR 181555Z VRB02KT 9999 BKN035 14/10 Q1026 RMK BKN MON CLD CIME VIS MIN 9999

Ora: 18:17 (16:17 UTC)


TAF: mancante

Osservazioni e previsioni meteorologiche di più di 4000 aeroporti (messaggi METAR e TAF).

Le stazioni disponibili sono rappresentate dai dischi gialli e rossi sulla carta.

Puntare il mouse per vedere il nome della stazione.

Clicca sopra per visualizzare le osservazioni e previsioni meteorologiche.

Per cambiare la mappa : fare clic sui pulsanti verdi con una croce nera per ingrandire, il pulsante verde con un trattino per diminuire, o sulla freccia verde per le mappe adiacenti.


METAR-TAF: